Regional Weather Roundup
Issued by NWS

Home | Current Version | Previous Version | Graphics & Text | Print | Product List | Glossary On
Versions: 1 2 3 4 5 6 7 8 9 10 11 12 13 14 15 16 17 18 19 20 21 22 23 24 25 26 27 28 29 30 31 32 33 34 35 36 37 38 39 40 41 42 43 44 45 46 47 48 49 50
000
ASUS43 KFSD 210202
RWRSD

WEATHER ROUNDUP FOR SOUTH DAKOTA
NATIONAL WEATHER SERVICE SIOUX FALLS SD
800 PM CST SAT JAN 20 2018

NOTE: "FAIR" INDICATES FEW OR NO CLOUDS BELOW 12,000 FEET WITH NO
SIGNIFICANT WEATHER AND/OR OBSTRUCTIONS TO VISIBILITY.


SDZ001>005-009-010-012>017-210300-
NORTHWEST AND NORTH CENTRAL SOUTH DAKOTA

CITY           SKY/WX    TMP DP  RH WIND       PRES   REMARKS
BUFFALO          N/A     29  24  82 W10       29.88R WCI  20
FAITH            N/A     33  30  88 NW8       29.95R WCI  26
MOBRIDGE       CLOUDY    36  27  69 NW5       29.92R
$$

SDZ012>016-024>037-041>051-057-063-072>074-210300-
SOUTHWEST AND SOUTH CENTRAL SOUTH DAKOTA

CITY           SKY/WX    TMP DP  RH WIND       PRES   REMARKS
RAPID CTY ARPT FLURRIES  32  27  81 VRB3      29.95S
PIERRE         CLOUDY    37  36  96 NW10      29.96R
CUSTER         LGT SNOW  25  22  88 NE10      29.85F FOG     WCI  15
ELLSWORTH AFB  CLOUDY    35  27  72 N6        29.94  WCI  30
PHILIP         LGT RAIN  34  33  96 W7        29.98R WCI  28
SPEARFISH        N/A     30  27  86 SW5       29.95S WCI  25
WINNER         CLOUDY    37  34  89 NW5       29.95S
$$

SDZ004>011-016>023-039-040-210300-
NORTHEAST SOUTH DAKOTA

CITY           SKY/WX    TMP DP  RH WIND       PRES   REMARKS
ABERDEEN       CLOUDY    37  30  75 W5        29.95R
WATERTOWN      CLOUDY    35  30  82 CALM      29.92R
BROOKINGS      CLOUDY    37  29  72 N5        29.92R
SISSETON         N/A     36  30  79 CALM      29.90S
$$

SDZ017-020-022-023-036>040-048>070-210300-
SOUTHEAST SOUTH DAKOTA

CITY           SKY/WX    TMP DP  RH WIND       PRES   REMARKS
SIOUX FALLS    CLOUDY    33  31  92 N3        29.92R
HURON          CLOUDY    36  32  85 W3        29.94R
CHAMBERLAIN    CLOUDY    38  37  94 NW6       29.95R
MITCHELL       CLOUDY    38  32  79 NW5       29.95R
YANKTON        CLOUDY    32  30  92 NW10      29.91R WCI  24
$$

ABBREVIATIONS USED IN REMARKS
   TC - TEMPERATURE IN CELSIUS
  WCI - WIND CHILL INDEX
   HX - HEAT INDEX
  VSB - VISIBILITY





USA.gov is the U.S. government's official web portal to all federal, state and local government web resources and services.